{"data":{"norad_id":58282,"epoch":"2026-05-25T04:39:52.444800Z","epoch_age_seconds":54910,"freshness":"FRESH","line1":"1 58282U 23174AC  26145.19435700  .00028041  00000+0  44719-3 0  9991","line2":"2 58282  97.3813 235.1173 0004837 208.4771 151.6219 15.53185687142181","mean_motion":15.53185687,"eccentricity":0.0004837,"inclination_deg":97.3813,"raan_deg":235.1173,"arg_perigee_deg":208.4771,"mean_anomaly_deg":151.6219,"bstar":0.00044719,"rev_number":14218,"period_min":92.712675120087,"perigee_km":404.14956696287,"apogee_km":410.71392616829,"semimajor_km":6785.5687465656,"source":"CELESTRAK","updated_at":"2026-05-25T13:38:13.298702Z"}}